Hourly Data Report for September 16, 2017

All times are specified in Local Standard Time (LST). Add 1 hour to adjust for Daylight Saving Time where and when it is observed.

PORT ALBERNI (AUT)
BRITISH COLUMBIA

49°18'59.700" N
124°55'36.600" W
76.20 m
1036B06
71475
WQC

Related Data

No related data is available for this station

Download Data

Hourly Data (September 2017)
Hourly Data Report for September 16, 2017
Temp Definition
°C
Dew Point Temp Definition
°C
Rel Hum Definition
%
Wind Dir Definition
10's deg

Wind Spd Definition
km/h
Visibility Definition
km
Stn Press Definition
kPa
Hmdx Definition


Wind Chill Definition


Weather Definition


TIME
00:00 8.3 5.0 80 30 2   100.75     LegendNANA
01:00 10.0 5.9 76 32 7   100.75     LegendNANA
02:00 8.9 5.9 81 33 3   100.77     LegendNANA
03:00 7.6 5.4 86 8 3   100.76     LegendNANA
04:00 7.7 5.5 86 32 5   100.75     LegendNANA
05:00 6.1 4.8 91 7 7   100.76     LegendNANA
06:00 6.9 5.3 89 33 3   100.79     LegendNANA
07:00 6.0 4.8 92 30 2   100.80     LegendNANA
08:00 10.4 5.9 74 36 2   100.79     LegendNANA
09:00 15.1 5.4 52 6 2   100.79     LegendNANA
10:00 18.3 5.3 42 3 3   100.75     LegendNANA
11:00 20.5 3.2 32 21 4   100.67     LegendNANA
12:00 22.8 2.3 26 4 3   100.58     LegendNANA
13:00 24.2 1.4 22 27 6   100.49     LegendNANA
14:00 25.3 1.6 21 24 11   100.45     LegendNANA
15:00 25.1 0.2 20 21 12   100.38     LegendNANA
16:00 24.4 1.1 22 25 12   100.38     LegendNANA
17:00 23.8 0.9 22 22 6   100.34     LegendNANA
18:00 20.6 1.8 29 21 5   100.30     LegendNANA
19:00 15.5 4.3 47 7 8   100.28     LegendNANA
20:00 13.2 5.1 58 13 9   100.30     LegendNANA
21:00 12.7 5.5 62 13 8   100.30     LegendNANA
22:00 12.2 6.6 69 14 7   100.28     LegendNANA
23:00 10.9 6.9 76 16 4   100.23     LegendNANA

Notes on Data Quality.

Legend

  • E = Estimated
  • M = Missing
  • NA = Not Available
  • ‡ = Partner data that is not subject to review by the National Climate Archives
Date modified: